Regional Weather Roundup
Issued by NWS

Home | Current Version | Previous Version | Graphics & Text | Print | Product List | Glossary On
Versions: 1 2 3 4 5 6 7 8 9 10 11 12 13 14 15 16 17 18 19 20 21 22 23 24 25 26 27
000
ASUS45 KCYS 221310
RWRWY

WYOMING REGIONAL WEATHER ROUNDUP
NATIONAL WEATHER SERVICE CHEYENNE WY
600 AM MST WED NOV 22 2017

NOTE:  "FAIR" INDICATES FEW OR NO CLOUDS BELOW 12,000 FEET
WITH NO SIGNIFICANT WEATHER AND/OR OBSTRUCTIONS TO VISIBILITY.

WYZ001-221400-
YELLOWSTONE NATIONAL PARK

CITY           SKY/WX    TMP DP  RH WIND       PRES   REMARKS
LK YELLOWSTONE   N/A     37  36  96 W7        30.38R WCI  32
W YELLOWSTONE  NOT AVBL

$$
WYZ002>013-054>058-071-098>099-221400-
NORTHERN WYOMING

CITY           SKY/WX    TMP DP  RH WIND       PRES   REMARKS
JACKSON        CLOUDY    46  40  79 SW12G25   30.36R
CODY           FAIR      55  37  50 W9G24     30.18R
GREYBULL       FAIR      30  27  88 CALM      30.18R
WORLAND        FAIR      29  28  96 S9        30.19R WCI  20
SHERIDAN       FAIR      32  29  88 N7        30.03R WCI  26
BUFFALO        FAIR      52  28  39 S8        30.08R
GILLETTE       FAIR      47  30  51 SW16      30.04F
HULETT         FAIR      43  30  61 SW14      30.04F
NEWCASTLE      FAIR      28  25  86 CALM      30.12R

$$
WYZ014>020-022>026-101>103-221400-
CENTRAL WYOMING

CITY           SKY/WX    TMP DP  RH WIND       PRES   REMARKS
BIG PINEY      CLOUDY    35  34  96 NE7       30.41R WCI  29
PINEDALE       CLOUDY    32  32 100 CALM      30.42R
DUBOIS         PTSUNNY   43  34  70 NW23      30.28S
LANDER         FAIR      46  31  55 SW5       30.22R
RIVERTON       FAIR      49  35  58 W14       30.21S
CASPER         FAIR      45  35  68 SW20      30.20R
DOUGLAS        FAIR      31  29  92 CALM      30.14F

$$
WYZ021-027>030-104>119-221400-
SOUTHERN WYOMING

CITY           SKY/WX    TMP DP  RH WIND       PRES   REMARKS
EVANSTON       FAIR      41  36  82 SW12      30.45F
KEMMERER       PTSUNNY   39  36  87 SW7       30.44S WCI  34
FORT BRIDGER   FAIR      43  37  80 SW8       30.46S
ROCK SPRINGS   FAIR      41  34  76 W20       30.38F
DIXON          CLOUDY    37  34  90 CALM      30.44S
RAWLINS        LGT RAIN  43  36  76 W26G33    30.31F
SARATOGA       PTSUNNY   41  34  75 W8        30.38F
LARAMIE        FAIR      39  34  82 SW16      30.29S WCI  30
CHEYENNE       FAIR      48  35  60 W30G39    30.20F
TORRINGTON     FAIR      30  27  88 CALM      30.13F
PINE BLUFFS    FAIR      34  32  93 MISG      30.20F

$$




USA.gov is the U.S. government's official web portal to all federal, state and local government web resources and services.